Location: N�rnberg
(49.4471°N, 11.0632°E)
Time: 21:57:59
(UTC+02:00)

VELOX 1 - Pass Details

Date: 26 April 2026
Orbit: 569 x 580 km, 98.3° (Epoch: 13 May)

Event Time Altitude Azimuth Distance (km) Brightness Sun altitude
Rises 01:08:26 0° 10° (N) 2,786 ? -27.1°
Reaches altitude 10° 01:10:37 10° 5° (N) 1,884 ? -27.1°
Enters shadow 01:13:49 44° 327° (NNW) 799 ? -27.1°
